FW8256 Weather Reports


time (UTC)temp
F
wind
direction
speed
knots
gust
knots
rain 1hr
in
rain 24hr
in
rain mn
in
humidity
%
barometer
mb
20260506014556 49 13 3.5 9.6 0.00 0.00 0.00 81 1010.5
20260506013059 49 9 3.5 9.6 0.00 0.00 0.00 80 1010.3
20260506011553 49 67 4.3 9.6 0.00 0.00 0.00 80 1010.1
20260506010105 50 29 5.2 11.3 0.00 0.00 0.00 79 1009.9
20260506004551 50 13 4.3 12.2 0.00 0.00 0.00 79 1009.6
20260506003044 50 34 2.6 9.6 0.00 0.00 0.00 80 1009.0
20260506001546 50 37 6.1 9.6 0.00 0.00 0.00 78 1008.9
20260506000041 51 46 4.3 11.3 0.00 0.00 0.00 78 1008.8
20260505234601 51 42 4.3 10.4 0.00 0.00 0.00 77 1008.5
20260505233041 51 43 6.1 12.2 0.00 0.00 0.00 76 1008.6
20260505231537 51 29 3.5 10.4 0.00 0.00 0.00 76 1009.2
20260505230033 51 36 4.3 12.2 0.00 0.00 0.00 76 1008.6
20260505224534 52 27 5.2 13.9 0.00 0.00 0.00 75 1008.3
20260505223028 52 360 5.2 12.2 0.00 0.00 0.00 74 1008.3
20260505221526 53 54 5.2 11.3 0.00 0.00 0.00 74 1008.2
20260505220026 53 35 5.2 18.2 0.00 0.00 0.00 74 1007.8
20260505214541 53 38 5.2 15.6 0.00 0.00 0.00 72 1007.5
20260505213021 54 30 7.8 15.6 0.00 0.00 0.00 72 1006.9
20260505211518 54 24 7.8 14.8 0.00 0.00 0.00 72 1007.1
20260505210019 54 12 7.0 12.2 0.00 0.00 0.00 73 1006.6
20260505204519 54 9 7.0 14.8 0.00 0.00 0.00 74 1006.8
20260505203022 54 9 4.3 11.3 0.00 0.00 0.00 75 1008.0
20260505201517 54 13 7.0 15.6 0.00 0.00 0.00 75 1006.6
20260505200009 54 9 7.0 14.8 0.00 0.00 0.00 76 1006.4
20260505194507 54 9 7.0 14.8 0.00 0.00 0.00 76 1006.5
20260505193009 54 9 6.1 15.6 0.00 0.00 0.00 78 1006.5
20260505191506 54 11 7.8 16.5 0.00 0.00 0.00 78 1006.5
20260505190002 54 9 7.0 13.9 0.00 0.00 0.00 79 1006.2
20260505184559 54 5 6.1 14.8 0.00 0.00 0.00 80 1006.4
20260505183056 55 54 7.0 12.2 0.00 0.00 0.00 79 1006.2
20260505181553 55 54 6.1 13.9 0.00 0.00 0.00 78 1006.2
20260505180104 56 17 9.6 17.4 0.00 0.00 0.00 77 1005.6
20260505174559 56 13 6.1 14.8 0.00 0.00 0.00 78 1005.2
20260505173046 56 57 5.2 12.2 0.00 0.00 0.00 79 1005.1
20260505171546 56 49 4.3 13.9 0.00 0.00 0.00 80 1004.9
20260505170040 56 38 3.5 12.2 0.00 0.00 0.00 80 1004.6
20260505164538 56 33 6.1 14.8 0.00 0.00 0.00 81 1004.5
20260505163035 57 19 4.3 12.2 0.00 0.00 0.00 81 1004.1
20260505161535 57 39 5.2 13.0 0.00 0.00 0.00 82 1003.7
20260505153021 59 49 7.0 14.8 0.00 0.00 0.00 82 1002.2
20260505151517 60 5 7.8 15.6 0.00 0.00 0.00 82 1001.8
20260505140110 70 23 1.7 4.3 0.00 0.00 0.00 81 999.5
20260505124555 68 26 0.0 1.7 0.00 0.00 0.00 82 998.9
20260505123101 68 23 0.0 0.9 0.00 0.00 0.00 81 999.0
20260505121551 68 23 0.0 1.7 0.00 0.00 0.00 80 998.6
20260505120051 68 23 0.0 3.5 0.00 0.00 0.00 80 998.4
20260505114549 69 25 1.7 5.2 0.00 0.00 0.00 79 998.2
20260505113051 69 222 2.6 9.6 0.00 0.00 0.00 79 997.1
20260505111545 69 156 2.6 8.7 0.00 0.00 0.00 78 996.7
20260505101539 71 360 3.5 8.7 0.00 0.00 0.00 77 996.3
20260505100038 71 360 3.5 12.2 0.00 0.00 0.00 77 996.3
20260505094636 71 360 3.5 8.7 0.00 0.00 0.00 77 996.2
20260505093038 71 360 3.5 9.6 0.00 0.00 0.00 77 996.2
20260505091540 71 360 4.3 8.7 0.00 0.00 0.00 77 996.1
20260505090031 71 189 4.3 8.7 0.00 0.00 0.00 77 996.3
20260505084532 71 237 3.5 7.8 0.00 0.00 0.00 77 996.5
20260505083027 71 360 3.5 7.8 0.00 0.00 0.00 76 996.6
20260505081523 72 360 3.5 10.4 0.00 0.00 0.00 76 996.9
20260505080021 71 207 4.3 8.7 0.00 0.00 0.00 76 997.0
20260505074519 71 360 5.2 10.4 0.00 0.00 0.00 76 997.0
20260505073017 71 360 2.6 9.6 0.00 0.00 0.00 76 997.3
20260505071515 72 360 4.3 12.2 0.00 0.00 0.00 75 997.5
20260505070013 72 139 4.3 11.3 0.00 0.00 0.00 75 997.6
20260505064509 72 360 5.2 12.2 0.00 0.00 0.00 74 997.8
20260505063007 73 360 5.2 13.9 0.00 0.00 0.00 74 997.9
20260505061508 73 360 6.1 13.0 0.00 0.00 0.00 73 997.9
20260505060003 73 159 5.2 13.9 0.00 0.00 0.00 73 998.0
20260505054608 73 360 5.2 15.6 0.00 0.00 0.00 73 998.3
20260505053059 73 360 4.3 10.4 0.00 0.00 0.00 72 998.3
20260505051611 74 360 5.2 13.0 0.00 0.00 0.00 72 998.5
20260505041550 74 360 5.2 13.0 0.00 0.00 0.00 70 998.9
20260505040048 75 360 5.2 11.3 0.00 0.00 0.00 70 999.1
20260505034546 75 360 5.2 11.3 0.00 0.00 0.00 70 999.1
20260505033146 75 360 4.3 12.2 0.00 0.00 0.00 69 999.0
20260505031553 75 360 4.3 11.3 0.00 0.00 0.00 68 998.8
20260505030045 75 360 4.3 9.6 0.00 0.00 0.00 68 998.8
20260505024550 76 360 4.3 13.0 0.00 0.00 0.00 67 998.6
20260505023043 76 360 4.3 12.2 0.00 0.00 0.00 66 998.3
20260505021547 76 360 4.3 10.4 0.00 0.00 0.00 66 998.4
20260505020042 77 360 5.2 13.0 0.00 0.00 0.00 65 998.3